Location: Cottage Gardens
(34.1061°N, 117.2689°W)
Time: 12:33:42
(UTC+00:00)

Daily predictions for brighter satellites

Satellite Brightness Start Highest point End
(mag) Time Altitude Azimuth Time Altitude Azimuth Time Altitude Azimuth
USA 267 4.3 12:00:27 10° ESE 12:06:42 49° NE 12:12:56 10° NNW
CZ-2C R/B 4.3 12:04:03 10° NNW 12:06:45 19° WNW 12:07:45 17° W
ARIANE 5 R/B 4.4 12:04:17 10° NW 12:06:50 14° WNW 12:08:34 12° W
Cosmos 1400 Rocket 4.3 12:03:38 10° SSE 12:07:15 37° E 12:10:51 10° NNE
CZ-4B R/B 2.0 12:08:34 10° SSE 12:11:46 57° ENE 12:14:54 10° N
Cosmos 1745 Rocket 4.5 12:06:33 10° NNW 12:12:14 38° W 12:17:51 10° SSW
SJ-6F 4.5 12:08:55 10° NNE 12:13:07 86° ESE 12:17:17 10° SSW
Cosmos 1455 3.0 12:09:53 10° S 12:13:39 55° E 12:17:26 10° NNE
Landsat 5 4.1 12:11:13 10° SSW 12:14:42 31° W 12:18:18 10° NW
FENGYUN 3A 4.5 12:10:33 10° NNE 12:15:47 53° E 12:21:01 10° S
Cosmos 1300 4.2 12:15:09 16° WSW 12:16:33 20° WNW 12:19:23 10° NNW
Lacrosse 5 rocket 2.1 12:12:39 10° SSW 12:17:03 58° SE 12:21:35 10° NE
Meteor 2-1 Rocket 4.4 12:17:25 10° S 12:23:15 89° W 12:29:11 10° N
SeaSat 1 3.0 12:18:38 10° N 12:23:18 43° WNW 12:27:56 10° SW
ADEOS Rocket 3.9 12:17:02 10° SSE 12:24:35 73° ENE 12:32:21 10° N
ERS-2 3.2 12:24:45 10° SSW 12:27:43 23° W 12:30:42 10° NW
Cosmos 2058 3.1 12:24:39 10° N 12:28:51 81° E 12:33:03 10° S
DELTA 2 R/B (1) 4.5 12:28:14 10° SW 12:33:29 42° SSE 12:38:43 10° ENE
TSX-5 3.5 12:39:15 10° SW 12:42:21 47° WNW 12:45:25 10° NNE
SAR-Lupe-4 3.9 12:40:50 10° S 12:44:13 43° W 12:47:39 10° NNW
COSMO-SKYMED 1 4.3 12:40:32 10° SE 12:44:34 39° ENE 12:48:38 10° N
METEOR-M 4.2 12:39:30 10° NNE 12:44:53 86° ESE 12:50:14 10° SSW
